| time (UTC) | temp F | wind direction | speed knots | gust knots | rain 1hr in | rain 24hr in | rain mn in | humidity % | barometer mb |
| 20260503223310 | 59 | 45 | 6.1 | 8.7 | 0.00 | 0.00 | 0.00 | 50 | 1011.5 |
| 20260503222310 | 60 | 45 | 3.5 | 6.1 | 0.00 | 0.00 | 0.00 | 49 | 1011.5 |
| 20260503221310 | 60 | 45 | 3.5 | 6.1 | 0.00 | 0.00 | 0.00 | 49 | 1011.6 |
| 20260503220310 | 61 | 45 | 3.5 | 6.1 | 0.00 | 0.00 | 0.00 | 47 | 1011.6 |
| 20260503215309 | 61 | 45 | 3.5 | 9.6 | 0.00 | 0.00 | 0.00 | 47 | 1011.3 |
| 20260503214310 | 61 | 22 | 4.3 | 5.2 | 0.00 | 0.00 | 0.00 | 48 | 1011.5 |
| 20260503213309 | 61 | 45 | 4.3 | 7.0 | 0.00 | 0.00 | 0.00 | 47 | 1011.5 |
| 20260503212309 | 61 | 45 | 1.7 | 3.5 | 0.00 | 0.00 | 0.00 | 47 | 1011.4 |
| 20260503211309 | 61 | 22 | 2.6 | 3.5 | 0.00 | 0.00 | 0.00 | 46 | 1011.0 |
| 20260503210314 | 61 | 45 | 3.5 | 5.2 | 0.00 | 0.00 | 0.00 | 48 | 1011.5 |
| 20260503205314 | 60 | 45 | 2.6 | 4.3 | 0.00 | 0.00 | 0.00 | 48 | 1011.1 |
| 20260503203314 | 61 | 22 | 2.6 | 5.2 | 0.00 | 0.00 | 0.00 | 45 | 1011.2 |
| 20260503202313 | 60 | 22 | 3.5 | 6.1 | 0.00 | 0.00 | 0.00 | 46 | 1011.2 |
| 20260503201313 | 60 | 22 | 3.5 | 7.0 | 0.00 | 0.00 | 0.00 | 47 | 1011.3 |
| 20260503194313 | 61 | 22 | 2.6 | 8.7 | 0.00 | 0.00 | 0.00 | 43 | 1011.3 |
| 20260503193313 | 62 | 45 | 3.5 | 6.1 | 0.00 | 0.00 | 0.00 | 43 | 1011.5 |
| 20260503192313 | 62 | 22 | 3.5 | 5.2 | 0.00 | 0.00 | 0.00 | 42 | 1011.5 |
| 20260503190312 | 61 | 22 | 5.2 | 7.8 | 0.00 | 0.00 | 0.00 | 38 | 1011.2 |
| 20260503185312 | 60 | 22 | 4.3 | 7.0 | 0.00 | 0.00 | 0.00 | 35 | 1010.9 |
| 20260503184312 | 60 | 22 | 3.5 | 6.1 | 0.00 | 0.00 | 0.00 | 35 | 1010.9 |
| 20260503183312 | 61 | 45 | 3.5 | 6.1 | 0.00 | 0.00 | 0.00 | 34 | 1010.7 |
| 20260503181312 | 62 | 22 | 3.5 | 5.2 | 0.00 | 0.00 | 0.00 | 37 | 1010.4 |
| 20260503180311 | 63 | 22 | 2.6 | 4.3 | 0.00 | 0.00 | 0.00 | 35 | 1010.1 |
| 20260503175312 | 62 | 22 | 3.5 | 4.3 | 0.00 | 0.00 | 0.00 | 36 | 1009.9 |
| 20260503174311 | 63 | 22 | 3.5 | 3.5 | 0.00 | 0.00 | 0.00 | 39 | 1010.1 |
| 20260503173311 | 64 | 22 | 2.6 | 3.5 | 0.00 | 0.00 | 0.00 | 39 | 1009.9 |
| 20260503172311 | 64 | 22 | 0.9 | 2.6 | 0.00 | 0.00 | 0.00 | 39 | 1010.0 |
| 20260503171311 | 66 | 360 | 2.6 | 3.5 | 0.00 | 0.00 | 0.00 | 34 | 1009.9 |
| 20260503170311 | 67 | 360 | 2.6 | 3.5 | 0.00 | 0.00 | 0.00 | 34 | 1009.9 |
| 20260503150309 | 74 | 180 | 1.7 | 9.6 | 0.00 | 0.00 | 0.00 | 21 | 1011.5 |
| 20260503131313 | 74 | 202 | 4.3 | 7.8 | 0.00 | 0.00 | 0.00 | 26 | 1012.9 |
| 20260503130312 | 75 | 180 | 0.0 | 5.2 | 0.00 | 0.00 | 0.00 | 28 | 1012.9 |
| 20260503110311 | 73 | 202 | 2.6 | 7.0 | 0.00 | 0.00 | 0.00 | 27 | 1013.8 |
| 20260503090313 | 69 | 202 | 3.5 | 7.0 | 0.00 | 0.00 | 0.00 | 35 | 1014.9 |
| 20260503081313 | 67 | 270 | 0.0 | 3.5 | 0.00 | 0.00 | 0.00 | 41 | 1015.0 |
| 20260503080313 | 66 | 180 | 0.0 | 4.3 | 0.00 | 0.00 | 0.00 | 41 | 1014.8 |
| 20260503072312 | 65 | 202 | 0.9 | 3.5 | 0.00 | 0.00 | 0.00 | 43 | 1014.8 |
| 20260503060311 | 53 | 45 | 3.5 | 5.2 | 0.00 | 0.00 | 0.00 | 60 | 1014.1 |
| 20260503054311 | 51 | 45 | 4.3 | 5.2 | 0.00 | 0.00 | 0.00 | 58 | 1014.3 |
| 20260503053311 | 49 | 45 | 4.3 | 6.1 | 0.00 | 0.00 | 0.00 | 59 | 1014.3 |
| 20260503052311 | 47 | 45 | 5.2 | 6.1 | 0.00 | 0.00 | 0.00 | 60 | 1014.2 |
| 20260503051311 | 47 | 45 | 5.2 | 6.1 | 0.00 | 0.00 | 0.00 | 61 | 1014.4 |
| 20260503050310 | 46 | 45 | 5.2 | 7.0 | 0.00 | 0.00 | 0.00 | 61 | 1014.4 |
| 20260503045310 | 46 | 45 | 5.2 | 6.1 | 0.00 | 0.00 | 0.00 | 61 | 1014.4 |
| 20260503044310 | 46 | 45 | 5.2 | 6.1 | 0.00 | 0.00 | 0.00 | 59 | 1014.4 |
| 20260503043310 | 47 | 45 | 4.3 | 6.1 | 0.00 | 0.00 | 0.00 | 58 | 1014.6 |
| 20260503042310 | 46 | 45 | 6.1 | 7.8 | 0.00 | 0.00 | 0.00 | 58 | 1014.4 |
| 20260503041310 | 47 | 45 | 5.2 | 7.0 | 0.00 | 0.00 | 0.00 | 56 | 1014.6 |
| 20260503040309 | 47 | 45 | 6.1 | 7.8 | 0.00 | 0.00 | 0.00 | 57 | 1014.6 |
| 20260503035309 | 47 | 45 | 6.1 | 7.0 | 0.00 | 0.00 | 0.00 | 54 | 1014.6 |
| 20260503034309 | 48 | 45 | 6.1 | 7.0 | 0.00 | 0.00 | 0.00 | 56 | 1014.6 |
| 20260503033309 | 49 | 45 | 6.1 | 7.0 | 0.00 | 0.00 | 0.00 | 52 | 1014.8 |
| 20260503032309 | 49 | 45 | 5.2 | 7.0 | 0.00 | 0.00 | 0.00 | 51 | 1014.7 |
| 20260503031314 | 50 | 45 | 6.1 | 7.8 | 0.00 | 0.00 | 0.00 | 50 | 1014.9 |
| 20260503025314 | 49 | 45 | 6.1 | 7.8 | 0.00 | 0.00 | 0.00 | 52 | 1014.9 |
| 20260503023313 | 49 | 45 | 4.3 | 7.0 | 0.00 | 0.00 | 0.00 | 52 | 1015.1 |
| 20260503022313 | 50 | 22 | 6.1 | 8.7 | 0.00 | 0.00 | 0.00 | 49 | 1015.2 |
| 20260503021313 | 50 | 22 | 6.1 | 7.8 | 0.00 | 0.00 | 0.00 | 49 | 1015.2 |
| 20260503020313 | 50 | 22 | 6.1 | 7.8 | 0.00 | 0.00 | 0.00 | 50 | 1015.3 |
| 20260503015313 | 51 | 22 | 7.0 | 7.8 | 0.00 | 0.00 | 0.00 | 48 | 1015.5 |
| 20260503014313 | 50 | 22 | 5.2 | 8.7 | 0.00 | 0.00 | 0.00 | 48 | 1015.6 |
| 20260503013313 | 50 | 45 | 6.1 | 7.8 | 0.00 | 0.00 | 0.00 | 48 | 1015.7 |
| 20260503012313 | 49 | 45 | 6.1 | 7.8 | 0.00 | 0.00 | 0.00 | 49 | 1015.7 |
| 20260503011312 | 50 | 22 | 6.1 | 7.8 | 0.00 | 0.00 | 0.00 | 50 | 1015.8 |
| 20260503010312 | 50 | 45 | 6.1 | 7.8 | 0.00 | 0.00 | 0.00 | 50 | 1015.8 |
| 20260503005312 | 49 | 22 | 4.3 | 7.0 | 0.00 | 0.00 | 0.00 | 50 | 1015.6 |
| 20260503004312 | 48 | 45 | 4.3 | 6.1 | 0.00 | 0.00 | 0.00 | 54 | 1015.5 |
| 20260503003312 | 48 | 22 | 5.2 | 7.0 | 0.00 | 0.00 | 0.00 | 55 | 1015.7 |
| 20260503002311 | 48 | 45 | 5.2 | 7.0 | 0.00 | 0.00 | 0.00 | 58 | 1016.0 |
| 20260503001311 | 48 | 45 | 5.2 | 7.0 | 0.00 | 0.00 | 0.00 | 56 | 1016.0 |
| 20260503000311 | 48 | 45 | 5.2 | 7.0 | 0.00 | 0.00 | 0.00 | 55 | 1016.3 |
| 20260502235311 | 48 | 45 | 4.3 | 7.0 | 0.00 | 0.00 | 0.00 | 57 | 1016.3 |
| 20260502234311 | 48 | 45 | 6.1 | 7.8 | 0.00 | 0.00 | 0.00 | 59 | 1016.3 |
| 20260502233314 | 48 | 45 | 6.1 | 7.0 | 0.00 | 0.00 | 0.00 | 59 | 1016.1 |
| 20260502232311 | 49 | 45 | 5.2 | 7.8 | 0.00 | 0.00 | 0.00 | 55 | 1016.4 |
| 20260502231311 | 49 | 45 | 5.2 | 7.0 | 0.00 | 0.00 | 0.00 | 55 | 1016.2 |
| 20260502230310 | 49 | 45 | 6.1 | 7.8 | 0.00 | 0.00 | 0.00 | 56 | 1016.4 |
| 20260502225310 | 47 | 45 | 3.5 | 6.1 | 0.00 | 0.00 | 0.00 | 62 | 1016.5 |
| 20260502224310 | 47 | 22 | 4.3 | 6.1 | 0.00 | 0.00 | 0.00 | 62 | 1016.4 |